TANAGER-1 (60507 NORAD) Tracking and Keplerian Element Data

This shows tracking and keplerian element data for the satellite.

Feedback or suggestion? Click here.




ElementValue
Catalog60507
NameTANAGER-1
Epoch Orbit864
Epoch Day286.7397317
Epoch Year2024
RAAN1.462
Inclination97.4365
Eccentricity0.000546
Argument of Perigee315.6385
Mean Anonmoly44.4413
Mean Motion15.2153043
Decay Rate0.00020995
L11 60507U 24149AR 24286.73973170 .00020995 00000+0 93314-3 0 9994
L22 60507 97.4365 1.4620 0005460 315.6385 44.4413 15.21530430 8645



Live tracking and technical data element details for TANAGER-1 (NORAD 60507). TANAGER-1 can be tracked NOW for your location showing map with azimuth and elevation plus other details from your city location.







IsCatalogInMostPopularTable: catalog: 60507, numindb: 5
Update: records affected: 1



GetName: 60507 TANAGER-1

Hit Count: updated at: Tue, 03 Dec 2024 01:56:45 GMT